{"data":{"norad_id":61978,"intl_designator":"2024-210V","name":"STARLINK-32606","alt_names":[],"object_type":"PAYLOAD","status":"ACTIVE","operator":null,"country":"US","launch_date":"2024-11-14","launch_site_code":"AFETR","launch_vehicle":null,"mission":null,"orbit_class":"UNKNOWN","rcs_meters":null,"size_class":null,"mass_kg":null,"dimensions":null,"purposes":["comms"],"wikipedia_slug":null,"has_3d_model":false,"image_url":null,"decayed_at":null,"tle_current":{"epoch":"2026-05-25T04:47:20.230080Z","epoch_age_seconds":67883,"freshness":"FRESH","line1":"1 61978U 24210V   26145.19953970  .00008836  00000+0  33019-3 0  9994","line2":"2 61978  43.0012 107.5191 0000897 270.8780  89.1969 15.27583215 86581","mean_motion":15.27583215,"eccentricity":8.97e-5,"inclination_deg":43.0012,"raan_deg":107.5191,"arg_perigee_deg":270.878,"mean_anomaly_deg":89.1969,"bstar":0.00033019,"rev_number":8658,"period_min":94.266550316868,"perigee_km":482.42402166066,"apogee_km":483.65491671923,"semimajor_km":6861.1764691899,"source":"CELESTRAK","updated_at":"2026-05-25T13:38:19.516566Z"}}}